| time (UTC) | temp C | wind direction | speed KPH | gust KPH | rain 1hr cm | rain 24hr cm | rain mn cm | humidity % | barometer mb |
| 20260902022001 | 31 | 205 | 6.4 | 9.7 | 0.00 | 0.00 | 0.00 | 67 | 1014.3 |
| 20260902021501 | 31 | 205 | 6.4 | 11.3 | 0.00 | 0.00 | 0.00 | 67 | 1014.3 |
| 20260902021001 | 31 | 174 | 4.8 | 12.9 | 0.00 | 0.00 | 0.00 | 67 | 1014.3 |
| 20260902020501 | 31 | 70 | 6.4 | 12.9 | 0.00 | 0.00 | 0.00 | 66 | 1014.1 |
| 20260902020144 | 31 | 34 | 3.2 | 17.7 | 0.00 | 0.00 | 0.00 | 64 | 1014.3 |
| 20260902020001 | 32 | 115 | 6.4 | 17.7 | 0.00 | 0.00 | 0.00 | 64 | 1014.1 |
| 20260902015500 | 32 | 27 | 8.0 | 17.7 | 0.00 | 0.00 | 0.00 | 64 | 1014.1 |
| 20260902015003 | 32 | 164 | 8.0 | 17.7 | 0.00 | 0.00 | 0.00 | 63 | 1014.0 |
| 20260902014724 | 32 | 352 | 6.4 | 14.5 | 0.00 | 0.00 | 0.00 | 62 | 1014.0 |
| 20260902014602 | 32 | 123 | 6.4 | 16.1 | 0.00 | 0.00 | 0.00 | 62 | 1014.2 |
| 20260902014002 | 32 | 52 | 6.4 | 14.5 | 0.00 | 0.00 | 0.00 | 61 | 1013.9 |
| 20260902013502 | 32 | 155 | 6.4 | 14.5 | 0.00 | 0.00 | 0.00 | 60 | 1013.8 |
| 20260902013106 | 32 | 10 | 3.2 | 16.1 | 0.00 | 0.00 | 0.00 | 58 | 1013.7 |
| 20260902013000 | 32 | 273 | 3.2 | 14.5 | 0.00 | 0.00 | 0.00 | 59 | 1013.6 |
| 20260902012736 | 33 | 294 | 6.4 | 14.5 | 0.00 | 0.00 | 0.00 | 58 | 1013.5 |
| 20260902012001 | 33 | 330 | 6.4 | 17.7 | 0.00 | 0.00 | 0.00 | 57 | 1013.5 |
| 20260902011555 | 33 | 60 | 4.8 | 16.1 | 0.00 | 0.00 | 0.00 | 56 | 1013.6 |
| 20260902011501 | 33 | 222 | 6.4 | 17.7 | 0.00 | 0.00 | 0.00 | 56 | 1013.4 |
| 20260902011001 | 33 | 177 | 9.7 | 16.1 | 0.00 | 0.00 | 0.00 | 55 | 1013.4 |
| 20260902010502 | 33 | 141 | 6.4 | 12.9 | 0.00 | 0.00 | 0.00 | 53 | 1013.1 |
| 20260902010454 | 33 | 344 | 6.4 | 14.5 | 0.00 | 0.00 | 0.00 | 52 | 1013.2 |
| 20260902010002 | 33 | 25 | 6.4 | 14.5 | 0.00 | 0.00 | 0.00 | 53 | 1013.1 |
| 20260902005501 | 33 | 214 | 8.0 | 17.7 | 0.00 | 0.00 | 0.00 | 52 | 1013.0 |
| 20260902005002 | 34 | 221 | 6.4 | 17.7 | 0.00 | 0.00 | 0.00 | 52 | 1013.0 |
| 20260902004603 | 33 | 180 | 6.4 | 17.7 | 0.00 | 0.00 | 0.00 | 51 | 1013.2 |
| 20260902004502 | 34 | 319 | 8.0 | 17.7 | 0.00 | 0.00 | 0.00 | 51 | 1013.0 |
| 20260902004001 | 34 | 20 | 8.0 | 17.7 | 0.00 | 0.00 | 0.00 | 51 | 1012.9 |
| 20260902003502 | 35 | 58 | 6.4 | 12.9 | 0.00 | 0.00 | 0.00 | 50 | 1012.9 |
| 20260902003104 | 35 | 240 | 4.8 | 14.5 | 0.00 | 0.00 | 0.00 | 49 | 1013.1 |
| 20260902003002 | 35 | 139 | 6.4 | 12.9 | 0.00 | 0.00 | 0.00 | 50 | 1012.8 |
| 20260902002500 | 35 | 288 | 6.4 | 14.5 | 0.00 | 0.00 | 0.00 | 49 | 1012.7 |
| 20260902002002 | 35 | 292 | 6.4 | 16.1 | 0.00 | 0.00 | 0.00 | 49 | 1012.6 |
| 20260902001556 | 35 | 210 | 4.8 | 16.1 | 0.00 | 0.00 | 0.00 | 48 | 1012.8 |
| 20260902001501 | 35 | 325 | 6.4 | 16.1 | 0.00 | 0.00 | 0.00 | 48 | 1012.5 |
| 20260902001001 | 36 | 94 | 8.0 | 14.5 | 0.00 | 0.00 | 0.00 | 46 | 1012.6 |
| 20260902000501 | 36 | 56 | 8.0 | 14.5 | 0.00 | 0.00 | 0.00 | 46 | 1012.5 |
| 20260902000055 | 36 | 88 | 6.4 | 16.1 | 0.00 | 0.00 | 0.00 | 44 | 1012.7 |
| 20260902000002 | 36 | 196 | 8.0 | 12.9 | 0.00 | 0.00 | 0.00 | 45 | 1012.5 |
| 20260901235500 | 36 | 200 | 4.8 | 12.9 | 0.00 | 0.00 | 0.00 | 43 | 1012.4 |
| 20260901235002 | 37 | 219 | 4.8 | 12.9 | 0.00 | 0.00 | 0.00 | 42 | 1012.4 |
| 20260901234635 | 36 | 198 | 4.8 | 12.9 | 0.00 | 0.00 | 0.00 | 42 | 1012.5 |
| 20260901234447 | 37 | 103 | 6.4 | 12.9 | 0.00 | 0.00 | 0.00 | 42 | 1012.2 |
| 20260901233941 | 37 | 242 | 6.4 | 12.9 | 0.00 | 0.00 | 0.00 | 41 | 1012.3 |
| 20260901233440 | 37 | 167 | 6.4 | 14.5 | 0.00 | 0.00 | 0.00 | 41 | 1012.2 |
| 20260901233103 | 37 | 82 | 9.7 | 17.7 | 0.00 | 0.00 | 0.00 | 40 | 1012.4 |
| 20260901232935 | 37 | 184 | 9.7 | 14.5 | 0.00 | 0.00 | 0.00 | 40 | 1012.2 |
| 20260901232435 | 37 | 347 | 4.8 | 11.3 | 0.00 | 0.00 | 0.00 | 39 | 1012.4 |
| 20260901231929 | 37 | 262 | 4.8 | 14.5 | 0.00 | 0.00 | 0.00 | 40 | 1012.3 |
| 20260901231607 | 37 | 3 | 8.0 | 12.9 | 0.00 | 0.00 | 0.00 | 39 | 1012.4 |
| 20260901231429 | 38 | 263 | 8.0 | 14.5 | 0.00 | 0.00 | 0.00 | 39 | 1012.2 |
| 20260901230929 | 38 | 67 | 6.4 | 14.5 | 0.00 | 0.00 | 0.00 | 38 | 1012.0 |
| 20260901230429 | 38 | 216 | 6.4 | 17.7 | 0.00 | 0.00 | 0.00 | 37 | 1012.1 |
| 20260901230159 | 38 | 336 | 6.4 | 17.7 | 0.00 | 0.00 | 0.00 | 37 | 1012.0 |
| 20260901230112 | 38 | 229 | 4.8 | 17.7 | 0.00 | 0.00 | 0.00 | 37 | 1012.3 |
| 20260901225929 | 38 | 238 | 6.4 | 17.7 | 0.00 | 0.00 | 0.00 | 37 | 1012.0 |
| 20260901224928 | 38 | 77 | 4.8 | 12.9 | 0.00 | 0.00 | 0.00 | 37 | 1012.0 |
| 20260901224603 | 38 | 112 | 4.8 | 12.9 | 0.00 | 0.00 | 0.00 | 36 | 1012.1 |
| 20260901224430 | 38 | 358 | 6.4 | 12.9 | 0.00 | 0.00 | 0.00 | 37 | 1012.1 |
| 20260901223930 | 38 | 176 | 3.2 | 11.3 | 0.00 | 0.00 | 0.00 | 37 | 1012.0 |
| 20260901223430 | 38 | 98 | 8.0 | 11.3 | 0.00 | 0.00 | 0.00 | 36 | 1012.1 |
| 20260901223126 | 38 | 229 | 6.4 | 14.5 | 0.00 | 0.00 | 0.00 | 35 | 1012.3 |
| 20260901222929 | 39 | 257 | 1.6 | 11.3 | 0.00 | 0.00 | 0.00 | 36 | 1012.0 |
| 20260901222429 | 38 | 289 | 4.8 | 11.3 | 0.00 | 0.00 | 0.00 | 37 | 1012.0 |
| 20260901221928 | 38 | 285 | 4.8 | 11.3 | 0.00 | 0.00 | 0.00 | 37 | 1012.0 |
| 20260901221618 | 38 | 226 | 6.4 | 14.5 | 0.00 | 0.00 | 0.00 | 36 | 1012.4 |
| 20260901221431 | 38 | 288 | 9.7 | 11.3 | 0.00 | 0.00 | 0.00 | 37 | 1012.0 |
| 20260901221157 | 39 | 276 | 3.2 | 17.7 | 0.00 | 0.00 | 0.00 | 36 | 1012.0 |
| 20260901220718 | 39 | 297 | 6.4 | 17.7 | 0.00 | 0.00 | 0.00 | 37 | 1012.1 |
| 20260901220057 | 39 | 79 | 3.2 | 12.9 | 0.00 | 0.00 | 0.00 | 37 | 1012.3 |
| 20260901215931 | 40 | 304 | 4.8 | 9.7 | 0.00 | 0.00 | 0.00 | 38 | 1012.1 |
| 20260901215428 | 39 | 106 | 3.2 | 9.7 | 0.00 | 0.00 | 0.00 | 39 | 1012.1 |
| 20260901214928 | 39 | 307 | 4.8 | 16.1 | 0.00 | 0.00 | 0.00 | 38 | 1012.2 |
| 20260901214600 | 39 | 286 | 6.4 | 14.5 | 0.00 | 0.00 | 0.00 | 37 | 1012.4 |
| 20260901214429 | 39 | 233 | 8.0 | 16.1 | 0.00 | 0.00 | 0.00 | 37 | 1012.2 |
| 20260901213929 | 40 | 272 | 3.2 | 12.9 | 0.00 | 0.00 | 0.00 | 37 | 1012.3 |
| 20260901213429 | 39 | 245 | 4.8 | 16.1 | 0.00 | 0.00 | 0.00 | 38 | 1012.3 |
| 20260901213126 | 39 | 225 | 4.8 | 14.5 | 0.00 | 0.00 | 0.00 | 39 | 1012.5 |
| 20260901212929 | 39 | 227 | 6.4 | 16.1 | 0.00 | 0.00 | 0.00 | 38 | 1012.4 |
| 20260901212429 | 39 | 262 | 4.8 | 17.7 | 0.00 | 0.00 | 0.00 | 37 | 1012.4 |
| 20260901211929 | 40 | 253 | 8.0 | 17.7 | 0.00 | 0.00 | 0.00 | 38 | 1012.4 |
| 20260901211602 | 39 | 229 | 3.2 | 20.9 | 0.00 | 0.00 | 0.00 | 38 | 1012.6 |
| 20260901211431 | 39 | 290 | 4.8 | 17.7 | 0.00 | 0.00 | 0.00 | 40 | 1012.4 |
| 20260901210929 | 39 | 37 | 8.0 | 17.7 | 0.00 | 0.00 | 0.00 | 41 | 1012.4 |
| 20260901210429 | 39 | 64 | 4.8 | 19.3 | 0.00 | 0.00 | 0.00 | 41 | 1012.6 |
| 20260901210101 | 39 | 123 | 6.4 | 20.9 | 0.00 | 0.00 | 0.00 | 40 | 1012.8 |
| 20260901205929 | 39 | 181 | 6.4 | 19.3 | 0.00 | 0.00 | 0.00 | 40 | 1012.6 |
| 20260901205428 | 39 | 209 | 4.8 | 12.9 | 0.00 | 0.00 | 0.00 | 41 | 1012.6 |
| 20260901204928 | 39 | 133 | 4.8 | 11.3 | 0.00 | 0.00 | 0.00 | 41 | 1012.8 |
| 20260901204559 | 38 | 250 | 3.2 | 14.5 | 0.00 | 0.00 | 0.00 | 41 | 1013.1 |
| 20260901204431 | 39 | 207 | 4.8 | 11.3 | 0.00 | 0.00 | 0.00 | 42 | 1012.9 |
| 20260901203930 | 38 | 124 | 3.2 | 14.5 | 0.00 | 0.00 | 0.00 | 43 | 1012.9 |
| 20260901203431 | 38 | 70 | 4.8 | 14.5 | 0.00 | 0.00 | 0.00 | 43 | 1013.1 |
| 20260901203107 | 38 | 82 | 4.8 | 12.9 | 0.00 | 0.00 | 0.00 | 41 | 1013.3 |
| 20260901202928 | 39 | 53 | 3.2 | 12.9 | 0.00 | 0.00 | 0.00 | 41 | 1013.0 |
| 20260901202429 | 38 | 36 | 6.4 | 16.1 | 0.00 | 0.00 | 0.00 | 41 | 1013.1 |
| 20260901202151 | 38 | 188 | 6.4 | 16.1 | 0.00 | 0.00 | 0.00 | 43 | 1013.2 |
| 20260901201654 | 38 | 335 | 3.2 | 14.5 | 0.00 | 0.00 | 0.00 | 43 | 1013.2 |
| 20260901201604 | 38 | 295 | 1.6 | 12.9 | 0.00 | 0.00 | 0.00 | 43 | 1013.5 |
| 20260901200929 | 39 | 311 | 4.8 | 11.3 | 0.00 | 0.00 | 0.00 | 41 | 1013.4 |
| 20260901200429 | 39 | 296 | 4.8 | 11.3 | 0.00 | 0.00 | 0.00 | 40 | 1013.5 |
| 20260901195929 | 39 | 190 | 3.2 | 9.7 | 0.00 | 0.00 | 0.00 | 42 | 1013.5 |
| 20260901195428 | 38 | 140 | 1.6 | 11.3 | 0.00 | 0.00 | 0.00 | 42 | 1013.7 |
| 20260901194929 | 39 | 264 | 4.8 | 11.3 | 0.00 | 0.00 | 0.00 | 41 | 1013.8 |
| 20260901194559 | 38 | 40 | 6.4 | 14.5 | 0.00 | 0.00 | 0.00 | 41 | 1013.9 |
| 20260901194428 | 39 | 169 | 6.4 | 16.1 | 0.00 | 0.00 | 0.00 | 40 | 1013.8 |
| 20260901193923 | 38 | 97 | 4.8 | 16.1 | 0.00 | 0.00 | 0.00 | 40 | 1013.9 |
| 20260901193418 | 38 | 181 | 3.2 | 12.9 | 0.00 | 0.00 | 0.00 | 39 | 1014.0 |
| 20260901193133 | 39 | 34 | 6.4 | 11.3 | 0.00 | 0.00 | 0.00 | 41 | 1014.0 |
| 20260901193108 | 38 | 56 | 4.8 | 11.3 | 0.00 | 0.00 | 0.00 | 39 | 1014.2 |
| 20260901192411 | 38 | 220 | 4.8 | 12.9 | 0.00 | 0.00 | 0.00 | 42 | 1014.0 |
| 20260901191905 | 38 | 233 | 4.8 | 16.1 | 0.00 | 0.00 | 0.00 | 39 | 1014.1 |
| 20260901191553 | 38 | 197 | 4.8 | 16.1 | 0.00 | 0.00 | 0.00 | 42 | 1014.4 |
| 20260901191402 | 38 | 311 | 6.4 | 16.1 | 0.00 | 0.00 | 0.00 | 41 | 1014.2 |
| 20260901190902 | 38 | 14 | 6.4 | 17.7 | 0.00 | 0.00 | 0.00 | 42 | 1014.3 |
| 20260901190401 | 38 | 41 | 6.4 | 17.7 | 0.00 | 0.00 | 0.00 | 40 | 1014.5 |
| 20260901190052 | 38 | 136 | 1.6 | 14.5 | 0.00 | 0.00 | 0.00 | 43 | 1014.7 |
| 20260901185901 | 38 | 222 | 3.2 | 14.5 | 0.00 | 0.00 | 0.00 | 43 | 1014.5 |
| 20260901185623 | 38 | 226 | 6.4 | 16.1 | 0.00 | 0.00 | 0.00 | 44 | 1014.6 |
| 20260901184902 | 38 | 186 | 6.4 | 16.1 | 0.00 | 0.00 | 0.00 | 40 | 1014.7 |
| 20260901184626 | 37 | 253 | 6.4 | 17.7 | 0.00 | 0.00 | 0.00 | 43 | 1015.0 |
| 20260901184402 | 38 | 237 | 4.8 | 14.5 | 0.00 | 0.00 | 0.00 | 43 | 1014.6 |
| 20260901183901 | 37 | 265 | 4.8 | 14.5 | 0.00 | 0.00 | 0.00 | 45 | 1014.9 |
| 20260901183401 | 37 | 86 | 6.4 | 14.5 | 0.00 | 0.00 | 0.00 | 46 | 1014.9 |
| 20260901183057 | 37 | 158 | 4.8 | 14.5 | 0.00 | 0.00 | 0.00 | 45 | 1015.3 |
| 20260901182901 | 37 | 51 | 4.8 | 14.5 | 0.00 | 0.00 | 0.00 | 47 | 1015.1 |
| 20260901182402 | 37 | 136 | 4.8 | 9.7 | 0.00 | 0.00 | 0.00 | 46 | 1015.2 |
| 20260901181901 | 37 | 262 | 4.8 | 12.9 | 0.00 | 0.00 | 0.00 | 46 | 1015.2 |
| 20260901181627 | 37 | 350 | 4.8 | 12.9 | 0.00 | 0.00 | 0.00 | 46 | 1015.6 |
| 20260901181401 | 37 | 248 | 8.0 | 12.9 | 0.00 | 0.00 | 0.00 | 46 | 1015.3 |
| 20260901180901 | 37 | 59 | 3.2 | 14.5 | 0.00 | 0.00 | 0.00 | 48 | 1015.4 |
| 20260901180406 | 37 | 262 | 3.2 | 16.1 | 0.00 | 0.00 | 0.00 | 49 | 1015.5 |
| 20260901180402 | 37 | 188 | 6.4 | 14.5 | 0.00 | 0.00 | 0.00 | 47 | 1015.6 |
| 20260901180109 | 36 | 231 | 3.2 | 16.1 | 0.00 | 0.00 | 0.00 | 47 | 1015.8 |
| 20260901175401 | 36 | 136 | 6.4 | 16.1 | 0.00 | 0.00 | 0.00 | 47 | 1015.7 |
| 20260901174914 | 36 | 139 | 6.4 | 17.7 | 0.00 | 0.00 | 0.00 | 51 | 1015.9 |
| 20260901174805 | 36 | 348 | 4.8 | 17.7 | 0.00 | 0.00 | 0.00 | 50 | 1016.1 |
| 20260901174402 | 36 | 212 | 4.8 | 17.7 | 0.00 | 0.00 | 0.00 | 51 | 1015.8 |
| 20260901173901 | 36 | 285 | 3.2 | 9.7 | 0.00 | 0.00 | 0.00 | 52 | 1015.9 |
| 20260901173401 | 36 | 276 | 4.8 | 9.7 | 0.00 | 0.00 | 0.00 | 51 | 1015.8 |
| 20260901173102 | 36 | 345 | 3.2 | 17.7 | 0.00 | 0.00 | 0.00 | 51 | 1016.1 |
| 20260901172901 | 36 | 334 | 4.8 | 14.5 | 0.00 | 0.00 | 0.00 | 52 | 1015.9 |
| 20260901172400 | 35 | 136 | 6.4 | 14.5 | 0.00 | 0.00 | 0.00 | 53 | 1015.8 |
| 20260901171900 | 35 | 141 | 6.4 | 11.3 | 0.00 | 0.00 | 0.00 | 52 | 1016.0 |
| 20260901171627 | 35 | 259 | 3.2 | 11.3 | 0.00 | 0.00 | 0.00 | 52 | 1016.3 |
| 20260901171400 | 36 | 108 | 3.2 | 9.7 | 0.00 | 0.00 | 0.00 | 52 | 1016.1 |
| 20260901170903 | 35 | 217 | 4.8 | 14.5 | 0.00 | 0.00 | 0.00 | 52 | 1016.1 |
| 20260901170402 | 35 | 193 | 4.8 | 14.5 | 0.00 | 0.00 | 0.00 | 55 | 1016.1 |
| 20260901170106 | 35 | 54 | 4.8 | 12.9 | 0.00 | 0.00 | 0.00 | 52 | 1016.6 |
| 20260901165903 | 35 | 118 | 4.8 | 12.9 | 0.00 | 0.00 | 0.00 | 53 | 1016.3 |
| 20260901165613 | 34 | 214 | 4.8 | 14.5 | 0.00 | 0.00 | 0.00 | 57 | 1016.4 |
| 20260901165602 | 35 | 327 | 3.2 | 12.9 | 0.00 | 0.00 | 0.00 | 56 | 1016.2 |
| 20260901164606 | 33 | 78 | 6.4 | 14.5 | 0.00 | 0.00 | 0.00 | 57 | 1016.6 |
| 20260901164402 | 34 | 249 | 6.4 | 14.5 | 0.00 | 0.00 | 0.00 | 58 | 1016.4 |
| 20260901163902 | 33 | 296 | 4.8 | 12.9 | 0.00 | 0.00 | 0.00 | 60 | 1016.4 |
| 20260901163403 | 33 | 39 | 3.2 | 12.9 | 0.00 | 0.00 | 0.00 | 60 | 1016.4 |
| 20260901163121 | 33 | 72 | 4.8 | 12.9 | 0.00 | 0.00 | 0.00 | 60 | 1016.6 |
| 20260901162903 | 33 | 126 | 6.4 | 12.9 | 0.00 | 0.00 | 0.00 | 61 | 1016.3 |
| 20260901162624 | 33 | 321 | 6.4 | 12.9 | 0.00 | 0.00 | 0.00 | 63 | 1016.3 |
| 20260901161901 | 33 | 277 | 4.8 | 14.5 | 0.00 | 0.00 | 0.00 | 63 | 1016.3 |
| 20260901161606 | 32 | 250 | 4.8 | 12.9 | 0.00 | 0.00 | 0.00 | 64 | 1016.6 |
| 20260901161401 | 33 | 188 | 4.8 | 14.5 | 0.00 | 0.00 | 0.00 | 64 | 1016.4 |
| 20260901160902 | 33 | 196 | 3.2 | 9.7 | 0.00 | 0.00 | 0.00 | 64 | 1016.5 |
| 20260901160401 | 33 | 69 | 1.6 | 12.9 | 0.00 | 0.00 | 0.00 | 66 | 1016.6 |
| 20260901160107 | 32 | 144 | 4.8 | 12.9 | 0.00 | 0.00 | 0.00 | 65 | 1016.7 |
| 20260901155901 | 32 | 285 | 4.8 | 12.9 | 0.00 | 0.00 | 0.00 | 65 | 1016.6 |
| 20260901155400 | 32 | 56 | 3.2 | 11.3 | 0.00 | 0.00 | 0.00 | 66 | 1016.5 |
| 20260901155119 | 32 | 186 | 6.4 | 11.3 | 0.00 | 0.00 | 0.00 | 68 | 1016.5 |
| 20260901154614 | 32 | 143 | 4.8 | 16.1 | 0.00 | 0.00 | 0.00 | 67 | 1016.7 |
| 20260901154400 | 32 | 105 | 6.4 | 9.7 | 0.00 | 0.00 | 0.00 | 67 | 1016.5 |
| 20260901153903 | 31 | 351 | 3.2 | 11.3 | 0.00 | 0.00 | 0.00 | 69 | 1016.4 |
| 20260901153402 | 31 | 215 | 4.8 | 11.3 | 0.00 | 0.00 | 0.00 | 69 | 1016.5 |
| 20260901153102 | 31 | 297 | 3.2 | 14.5 | 0.00 | 0.00 | 0.00 | 69 | 1016.7 |
| 20260901152903 | 31 | 96 | 3.2 | 16.1 | 0.00 | 0.00 | 0.00 | 70 | 1016.4 |
| 20260901152415 | 31 | 174 | 4.8 | 16.1 | 0.00 | 0.00 | 0.00 | 71 | 1016.4 |
| 20260901151902 | 31 | 241 | 4.8 | 16.1 | 0.00 | 0.00 | 0.00 | 72 | 1016.4 |
| 20260901151558 | 30 | 88 | 4.8 | 16.1 | 0.00 | 0.00 | 0.00 | 72 | 1016.6 |
| 20260901151402 | 31 | 99 | 6.4 | 16.1 | 0.00 | 0.00 | 0.00 | 72 | 1016.3 |
| 20260901150901 | 30 | 215 | 6.4 | 14.5 | 0.00 | 0.00 | 0.00 | 72 | 1016.3 |
| 20260901150401 | 30 | 205 | 6.4 | 12.9 | 0.00 | 0.00 | 0.00 | 73 | 1016.3 |
| 20260901150056 | 30 | 18 | 3.2 | 14.5 | 0.00 | 0.00 | 0.00 | 73 | 1016.6 |
| 20260901145901 | 30 | 203 | 4.8 | 14.5 | 0.00 | 0.00 | 0.00 | 75 | 1016.2 |
| 20260901145401 | 30 | 194 | 6.4 | 14.5 | 0.00 | 0.00 | 0.00 | 74 | 1016.2 |
| 20260901145127 | 30 | 280 | 6.4 | 9.7 | 0.00 | 0.00 | 0.00 | 75 | 1016.3 |
| 20260901144603 | 30 | 254 | 3.2 | 14.5 | 0.00 | 0.00 | 0.00 | 76 | 1016.6 |
| 20260901144401 | 30 | 15 | 3.2 | 9.7 | 0.00 | 0.00 | 0.00 | 77 | 1016.4 |
| 20260901144121 | 30 | 333 | 3.2 | 12.9 | 0.00 | 0.00 | 0.00 | 77 | 1016.4 |
| 20260901143402 | 30 | 56 | 4.8 | 16.1 | 0.00 | 0.00 | 0.00 | 77 | 1016.4 |
| 20260901143108 | 29 | 73 | 4.8 | 14.5 | 0.00 | 0.00 | 0.00 | 78 | 1016.6 |
| 20260901142902 | 29 | 270 | 4.8 | 16.1 | 0.00 | 0.00 | 0.00 | 77 | 1016.4 |
| 20260901142401 | 29 | 49 | 4.8 | 12.9 | 0.00 | 0.00 | 0.00 | 78 | 1016.5 |
| 20260901141901 | 29 | 292 | 3.2 | 11.3 | 0.00 | 0.00 | 0.00 | 80 | 1016.4 |
| 20260901141723 | 28 | 183 | 3.2 | 11.3 | 0.00 | 0.00 | 0.00 | 80 | 1016.7 |
| 20260901141401 | 28 | 296 | 4.8 | 9.7 | 0.00 | 0.00 | 0.00 | 80 | 1016.5 |
| 20260901141345 | 28 | 298 | 3.2 | 9.7 | 0.00 | 0.00 | 0.00 | 81 | 1016.4 |
| 20260901140854 | 28 | 197 | 4.8 | 9.7 | 0.00 | 0.00 | 0.00 | 82 | 1016.4 |
| 20260901140120 | 28 | 276 | 3.2 | 12.9 | 0.00 | 0.00 | 0.00 | 81 | 1016.4 |
| 20260901135903 | 28 | 308 | 4.8 | 9.7 | 0.00 | 0.00 | 0.00 | 82 | 1016.3 |
| 20260901135402 | 28 | 272 | 3.2 | 9.7 | 0.00 | 0.00 | 0.00 | 83 | 1016.2 |
| 20260901134902 | 28 | 240 | 3.2 | 9.7 | 0.00 | 0.00 | 0.00 | 83 | 1016.2 |
| 20260901134639 | 27 | 189 | 1.6 | 9.7 | 0.00 | 0.00 | 0.00 | 83 | 1016.5 |
| 20260901134402 | 27 | 217 | 3.2 | 9.7 | 0.00 | 0.00 | 0.00 | 84 | 1016.2 |
| 20260901133903 | 27 | 180 | 4.8 | 9.7 | 0.00 | 0.00 | 0.00 | 84 | 1016.1 |
| 20260901133621 | 27 | 184 | 3.2 | 8.0 | 0.00 | 0.00 | 0.00 | 84 | 1016.0 |
| 20260901133105 | 27 | 330 | 1.6 | 6.4 | 0.00 | 0.00 | 0.00 | 84 | 1016.3 |
| 20260901132900 | 27 | 50 | 3.2 | 6.4 | 0.00 | 0.00 | 0.00 | 84 | 1016.1 |
| 20260901132400 | 27 | 113 | 1.6 | 4.8 | 0.00 | 0.00 | 0.00 | 84 | 1016.1 |
| 20260901131901 | 27 | 38 | 1.6 | 3.2 | 0.00 | 0.00 | 0.00 | 84 | 1016.0 |
| 20260901131702 | 27 | 201 | 1.6 | 6.4 | 0.00 | 0.00 | 0.00 | 84 | 1016.3 |
| 20260901131401 | 27 | 115 | 3.2 | 4.8 | 0.00 | 0.00 | 0.00 | 85 | 1016.0 |
| 20260901130859 | 27 | 138 | 1.6 | 6.4 | 0.00 | 0.00 | 0.00 | 85 | 1015.9 |
| 20260901130354 | 27 | 113 | 0.0 | 6.4 | 0.00 | 0.00 | 0.00 | 86 | 1016.0 |
| 20260901130125 | 27 | 94 | 1.6 | 6.4 | 0.00 | 0.00 | 0.00 | 86 | 1015.9 |
| 20260901130108 | 26 | 188 | 1.6 | 6.4 | 0.00 | 0.00 | 0.00 | 85 | 1016.2 |
| 20260901125350 | 26 | 68 | 1.6 | 6.4 | 0.00 | 0.00 | 0.00 | 87 | 1015.8 |
| 20260901124840 | 26 | 160 | 1.6 | 3.2 | 0.00 | 0.00 | 0.00 | 87 | 1015.7 |
| 20260901124608 | 26 | 0 | 0.0 | 4.8 | 0.00 | 0.00 | 0.00 | 87 | 1016.0 |
| 20260901124340 | 26 | 252 | 0.0 | 3.2 | 0.00 | 0.00 | 0.00 | 88 | 1015.7 |
| 20260901123830 | 26 | 334 | 1.6 | 4.8 | 0.00 | 0.00 | 0.00 | 89 | 1015.6 |
| 20260901123551 | 26 | 248 | 1.6 | 4.8 | 0.00 | 0.00 | 0.00 | 89 | 1015.6 |
| 20260901123104 | 26 | 97 | 0.0 | 4.8 | 0.00 | 0.00 | 0.00 | 88 | 1015.8 |
| 20260901122822 | 26 | 226 | 0.0 | 3.2 | 0.00 | 0.00 | 0.00 | 89 | 1015.6 |
| 20260901122318 | 26 | 30 | 0.0 | 4.8 | 0.00 | 0.00 | 0.00 | 89 | 1015.7 |
| 20260901121815 | 26 | 237 | 0.0 | 4.8 | 0.00 | 0.00 | 0.00 | 88 | 1015.6 |
| 20260901121604 | 26 | 351 | 0.0 | 4.8 | 0.00 | 0.00 | 0.00 | 88 | 1015.7 |
| 20260901121304 | 26 | 259 | 0.0 | 3.2 | 0.00 | 0.00 | 0.00 | 88 | 1015.5 |
| 20260901120803 | 26 | 27 | 0.0 | 3.2 | 0.00 | 0.00 | 0.00 | 88 | 1015.4 |
| 20260901120302 | 26 | 233 | 0.0 | 6.4 | 0.00 | 0.00 | 0.00 | 88 | 1015.3 |
| 20260901120108 | 26 | 83 | 0.0 | 4.8 | 0.00 | 0.00 | 0.00 | 88 | 1015.5 |
| 20260901115803 | 26 | 311 | 1.6 | 6.4 | 0.00 | 0.00 | 0.00 | 88 | 1015.3 |
| 20260901115306 | 26 | 216 | 1.6 | 4.8 | 0.00 | 0.00 | 0.00 | 88 | 1015.3 |
| 20260901114812 | 26 | 292 | 0.0 | 4.8 | 0.00 | 0.00 | 0.00 | 88 | 1015.4 |
| 20260901114557 | 26 | 358 | 0.0 | 4.8 | 0.00 | 0.00 | 0.00 | 87 | 1015.6 |
| 20260901114255 | 26 | 139 | 1.6 | 4.8 | 0.00 | 0.00 | 0.00 | 88 | 1015.3 |
| 20260901113749 | 26 | 215 | 0.0 | 4.8 | 0.00 | 0.00 | 0.00 | 88 | 1015.4 |
| 20260901113245 | 26 | 359 | 1.6 | 6.4 | 0.00 | 0.00 | 0.00 | 88 | 1015.4 |
| 20260901113143 | 26 | 75 | 1.6 | 8.0 | 0.00 | 0.00 | 0.00 | 87 | 1015.5 |
| 20260901112740 | 26 | 295 | 1.6 | 8.0 | 0.00 | 0.00 | 0.00 | 88 | 1015.3 |
| 20260901112240 | 26 | 103 | 3.2 | 8.0 | 0.00 | 0.00 | 0.00 | 88 | 1015.3 |
| 20260901111736 | 26 | 325 | 1.6 | 6.4 | 0.00 | 0.00 | 0.00 | 88 | 1015.3 |
| 20260901111604 | 26 | 276 | 1.6 | 6.4 | 0.00 | 0.00 | 0.00 | 87 | 1015.6 |
| 20260901111231 | 26 | 258 | 1.6 | 6.4 | 0.00 | 0.00 | 0.00 | 88 | 1015.3 |
| 20260901110729 | 26 | 5 | 1.6 | 6.4 | 0.00 | 0.00 | 0.00 | 88 | 1015.4 |
| 20260901110230 | 26 | 298 | 0.0 | 6.4 | 0.00 | 0.00 | 0.00 | 88 | 1015.5 |
| 20260901110108 | 26 | 0 | 0.0 | 4.8 | 0.00 | 0.00 | 0.00 | 87 | 1015.5 |
| 20260901105952 | 26 | 37 | 1.6 | 6.4 | 0.00 | 0.00 | 0.00 | 87 | 1015.4 |
| 20260901105229 | 26 | 236 | 0.0 | 4.8 | 0.00 | 0.00 | 0.00 | 87 | 1015.3 |
| 20260901104729 | 26 | 162 | 1.6 | 4.8 | 0.00 | 0.00 | 0.00 | 87 | 1015.3 |
| 20260901104601 | 26 | 290 | 0.0 | 9.7 | 0.00 | 0.00 | 0.00 | 87 | 1015.5 |
| 20260901104228 | 26 | 181 | 0.0 | 9.7 | 0.00 | 0.00 | 0.00 | 87 | 1015.3 |
| 20260901103950 | 26 | 345 | 1.6 | 9.7 | 0.00 | 0.00 | 0.00 | 87 | 1015.3 |
| 20260901103229 | 26 | 50 | 0.0 | 6.4 | 0.00 | 0.00 | 0.00 | 87 | 1015.2 |
| 20260901103106 | 26 | 13 | 1.6 | 6.4 | 0.00 | 0.00 | 0.00 | 86 | 1015.4 |
| 20260901102950 | 26 | 111 | 3.2 | 4.8 | 0.00 | 0.00 | 0.00 | 87 | 1015.3 |
| 20260901102229 | 26 | 226 | 0.0 | 3.2 | 0.00 | 0.00 | 0.00 | 87 | 1015.5 |
| 20260901101728 | 26 | 93 | 1.6 | 8.0 | 0.00 | 0.00 | 0.00 | 86 | 1015.3 |
| 20260901101616 | 26 | 73 | 1.6 | 8.0 | 0.00 | 0.00 | 0.00 | 86 | 1015.6 |
| 20260901101229 | 26 | 18 | 3.2 | 8.0 | 0.00 | 0.00 | 0.00 | 86 | 1015.4 |
| 20260901100728 | 26 | 28 | 3.2 | 6.4 | 0.00 | 0.00 | 0.00 | 86 | 1015.4 |
| 20260901100229 | 26 | 202 | 1.6 | 4.8 | 0.00 | 0.00 | 0.00 | 86 | 1015.5 |
| 20260901100108 | 26 | 215 | 1.6 | 4.8 | 0.00 | 0.00 | 0.00 | 86 | 1015.6 |
| 20260901095729 | 26 | 256 | 1.6 | 4.8 | 0.00 | 0.00 | 0.00 | 86 | 1015.5 |
| 20260901095229 | 26 | 198 | 0.0 | 4.8 | 0.00 | 0.00 | 0.00 | 86 | 1015.6 |
| 20260901094729 | 27 | 11 | 0.0 | 8.0 | 0.00 | 0.00 | 0.00 | 86 | 1015.5 |
| 20260901094603 | 26 | 0 | 1.6 | 8.0 | 0.00 | 0.00 | 0.00 | 85 | 1015.6 |
| 20260901094453 | 27 | 241 | 3.2 | 8.0 | 0.00 | 0.00 | 0.00 | 86 | 1015.4 |
| 20260901093729 | 27 | 349 | 1.6 | 6.4 | 0.00 | 0.00 | 0.00 | 86 | 1015.5 |
| 20260901093230 | 27 | 215 | 3.2 | 8.0 | 0.00 | 0.00 | 0.00 | 86 | 1015.4 |
| 20260901093100 | 26 | 56 | 1.6 | 6.4 | 0.00 | 0.00 | 0.00 | 85 | 1015.6 |
| 20260901092730 | 27 | 95 | 3.2 | 8.0 | 0.00 | 0.00 | 0.00 | 86 | 1015.4 |
| 20260901092231 | 27 | 234 | 1.6 | 4.8 | 0.00 | 0.00 | 0.00 | 85 | 1015.5 |
| 20260901091730 | 27 | 269 | 1.6 | 4.8 | 0.00 | 0.00 | 0.00 | 85 | 1015.6 |
| 20260901091555 | 26 | 214 | 0.0 | 11.3 | 0.00 | 0.00 | 0.00 | 85 | 1015.7 |
| 20260901091229 | 27 | 19 | 3.2 | 11.3 | 0.00 | 0.00 | 0.00 | 85 | 1015.6 |
| 20260901090954 | 27 | 202 | 1.6 | 11.3 | 0.00 | 0.00 | 0.00 | 85 | 1015.6 |
| 20260901090447 | 27 | 193 | 1.6 | 6.4 | 0.00 | 0.00 | 0.00 | 85 | 1015.7 |
| 20260901090428 | 27 | 212 | 3.2 | 9.7 | 0.00 | 0.00 | 0.00 | 85 | 1015.6 |
| 20260901090100 | 27 | 330 | 1.6 | 8.0 | 0.00 | 0.00 | 0.00 | 85 | 1015.8 |
| 20260901085229 | 27 | 229 | 1.6 | 6.4 | 0.00 | 0.00 | 0.00 | 85 | 1015.8 |
| 20260901084729 | 27 | 176 | 1.6 | 6.4 | 0.00 | 0.00 | 0.00 | 85 | 1015.7 |
| 20260901084600 | 27 | 335 | 0.0 | 6.4 | 0.00 | 0.00 | 0.00 | 84 | 1015.9 |
| 20260901084229 | 27 | 126 | 1.6 | 6.4 | 0.00 | 0.00 | 0.00 | 85 | 1015.7 |
| 20260901083729 | 27 | 13 | 1.6 | 8.0 | 0.00 | 0.00 | 0.00 | 84 | 1015.7 |
| 20260901083229 | 27 | 169 | 1.6 | 8.0 | 0.00 | 0.00 | 0.00 | 84 | 1015.7 |
| 20260901083100 | 27 | 47 | 1.6 | 9.7 | 0.00 | 0.00 | 0.00 | 84 | 1015.8 |
| 20260901082954 | 27 | 290 | 1.6 | 8.0 | 0.00 | 0.00 | 0.00 | 84 | 1015.8 |
| 20260901082229 | 27 | 233 | 1.6 | 8.0 | 0.00 | 0.00 | 0.00 | 84 | 1015.7 |
| 20260901082000 | 27 | 274 | 1.6 | 8.0 | 0.00 | 0.00 | 0.00 | 84 | 1015.8 |
| 20260901081602 | 27 | 7 | 1.6 | 8.0 | 0.00 | 0.00 | 0.00 | 84 | 1016.1 |
| 20260901081229 | 27 | 225 | 1.6 | 8.0 | 0.00 | 0.00 | 0.00 | 84 | 1015.9 |
| 20260901080729 | 27 | 219 | 1.6 | 8.0 | 0.00 | 0.00 | 0.00 | 84 | 1015.8 |
| 20260901080231 | 27 | 338 | 1.6 | 11.3 | 0.00 | 0.00 | 0.00 | 84 | 1015.8 |
| 20260901080053 | 27 | 191 | 1.6 | 9.7 | 0.00 | 0.00 | 0.00 | 83 | 1016.0 |
| 20260901075731 | 27 | 250 | 1.6 | 11.3 | 0.00 | 0.00 | 0.00 | 84 | 1015.9 |
| 20260901075230 | 27 | 93 | 1.6 | 8.0 | 0.00 | 0.00 | 0.00 | 83 | 1015.7 |
| 20260901074731 | 27 | 226 | 3.2 | 6.4 | 0.00 | 0.00 | 0.00 | 83 | 1015.8 |
| 20260901074606 | 27 | 349 | 1.6 | 6.4 | 0.00 | 0.00 | 0.00 | 83 | 1016.2 |
| 20260901074229 | 27 | 257 | 3.2 | 6.4 | 0.00 | 0.00 | 0.00 | 83 | 1015.8 |
| 20260901073729 | 27 | 255 | 1.6 | 9.7 | 0.00 | 0.00 | 0.00 | 83 | 1015.9 |
| 20260901073229 | 27 | 255 | 3.2 | 9.7 | 0.00 | 0.00 | 0.00 | 83 | 1015.8 |
| 20260901073106 | 27 | 238 | 1.6 | 6.4 | 0.00 | 0.00 | 0.00 | 83 | 1016.0 |
| 20260901072729 | 27 | 287 | 1.6 | 6.4 | 0.00 | 0.00 | 0.00 | 83 | 1015.7 |
| 20260901072230 | 27 | 191 | 1.6 | 6.4 | 0.00 | 0.00 | 0.00 | 83 | 1015.8 |
| 20260901071728 | 27 | 247 | 3.2 | 6.4 | 0.00 | 0.00 | 0.00 | 83 | 1016.0 |
| 20260901071720 | 27 | 326 | 1.6 | 9.7 | 0.00 | 0.00 | 0.00 | 83 | 1016.0 |
| 20260901071603 | 27 | 44 | 1.6 | 6.4 | 0.00 | 0.00 | 0.00 | 82 | 1016.2 |
| 20260901071000 | 28 | 243 | 3.2 | 9.7 | 0.00 | 0.00 | 0.00 | 83 | 1016.1 |
| 20260901070230 | 28 | 191 | 4.8 | 9.7 | 0.00 | 0.00 | 0.00 | 83 | 1016.1 |
| 20260901070103 | 27 | 124 | 1.6 | 8.0 | 0.00 | 0.00 | 0.00 | 82 | 1016.3 |
| 20260901065959 | 28 | 53 | 3.2 | 8.0 | 0.00 | 0.00 | 0.00 | 83 | 1016.1 |
| 20260901065229 | 28 | 118 | 3.2 | 8.0 | 0.00 | 0.00 | 0.00 | 82 | 1016.1 |
| 20260901064729 | 28 | 202 | 3.2 | 8.0 | 0.00 | 0.00 | 0.00 | 82 | 1016.1 |
| 20260901064555 | 27 | 317 | 1.6 | 6.4 | 0.00 | 0.00 | 0.00 | 82 | 1016.3 |
| 20260901064228 | 28 | 210 | 1.6 | 8.0 | 0.00 | 0.00 | 0.00 | 82 | 1016.1 |
| 20260901063729 | 28 | 129 | 3.2 | 9.7 | 0.00 | 0.00 | 0.00 | 82 | 1016.0 |
| 20260901063230 | 28 | 122 | 3.2 | 9.7 | 0.00 | 0.00 | 0.00 | 82 | 1016.1 |
| 20260901063100 | 28 | 329 | 3.2 | 9.7 | 0.00 | 0.00 | 0.00 | 82 | 1016.3 |
| 20260901062729 | 28 | 343 | 1.6 | 6.4 | 0.00 | 0.00 | 0.00 | 82 | 1016.0 |
| 20260901062229 | 28 | 292 | 1.6 | 8.0 | 0.00 | 0.00 | 0.00 | 82 | 1016.2 |
| 20260901061729 | 28 | 232 | 1.6 | 11.3 | 0.00 | 0.00 | 0.00 | 82 | 1016.1 |
| 20260901061602 | 28 | 70 | 1.6 | 9.7 | 0.00 | 0.00 | 0.00 | 81 | 1016.5 |
| 20260901061228 | 28 | 347 | 0.0 | 11.3 | 0.00 | 0.00 | 0.00 | 82 | 1016.2 |
| 20260901060729 | 28 | 295 | 3.2 | 16.1 | 0.00 | 0.00 | 0.00 | 82 | 1016.2 |
| 20260901060229 | 28 | 352 | 3.2 | 16.1 | 0.00 | 0.00 | 0.00 | 81 | 1016.3 |
| 20260901060100 | 28 | 335 | 1.6 | 9.7 | 0.00 | 0.00 | 0.00 | 81 | 1016.6 |
| 20260901055729 | 28 | 17 | 3.2 | 9.7 | 0.00 | 0.00 | 0.00 | 81 | 1016.3 |
| 20260901055229 | 28 | 281 | 3.2 | 9.7 | 0.00 | 0.00 | 0.00 | 81 | 1016.3 |
| 20260901054729 | 28 | 4 | 1.6 | 9.7 | 0.00 | 0.00 | 0.00 | 81 | 1016.2 |
| 20260901054604 | 28 | 24 | 3.2 | 11.3 | 0.00 | 0.00 | 0.00 | 81 | 1016.4 |
| 20260901054451 | 28 | 214 | 3.2 | 9.7 | 0.00 | 0.00 | 0.00 | 81 | 1016.3 |
| 20260901053728 | 28 | 108 | 3.2 | 9.7 | 0.00 | 0.00 | 0.00 | 81 | 1016.1 |
| 20260901053233 | 28 | 302 | 4.8 | 9.7 | 0.00 | 0.00 | 0.00 | 81 | 1016.3 |
| 20260901053123 | 28 | 162 | 3.2 | 11.3 | 0.00 | 0.00 | 0.00 | 80 | 1016.5 |
| 20260901052950 | 28 | 208 | 3.2 | 9.7 | 0.00 | 0.00 | 0.00 | 81 | 1016.2 |
| 20260901052229 | 28 | 36 | 3.2 | 9.7 | 0.00 | 0.00 | 0.00 | 81 | 1016.3 |
| 20260901051729 | 28 | 207 | 3.2 | 11.3 | 0.00 | 0.00 | 0.00 | 80 | 1016.3 |
| 20260901051607 | 28 | 18 | 3.2 | 11.3 | 0.00 | 0.00 | 0.00 | 80 | 1016.6 |
| 20260901051449 | 28 | 90 | 3.2 | 11.3 | 0.00 | 0.00 | 0.00 | 80 | 1016.4 |
| 20260901051221 | 28 | 142 | 3.2 | 8.0 | 0.00 | 0.00 | 0.00 | 80 | 1016.4 |
| 20260901050231 | 28 | 160 | 3.2 | 8.0 | 0.00 | 0.00 | 0.00 | 80 | 1016.4 |
| 20260901050108 | 28 | 226 | 1.6 | 9.7 | 0.00 | 0.00 | 0.00 | 79 | 1016.6 |
| 20260901045955 | 28 | 249 | 1.6 | 9.7 | 0.00 | 0.00 | 0.00 | 79 | 1016.3 |
| 20260901045455 | 28 | 230 | 4.8 | 9.7 | 0.00 | 0.00 | 0.00 | 79 | 1016.4 |
| 20260901044940 | 28 | 256 | 3.2 | 14.5 | 0.00 | 0.00 | 0.00 | 79 | 1016.6 |
| 20260901044928 | 28 | 177 | 4.8 | 12.9 | 0.00 | 0.00 | 0.00 | 79 | 1016.4 |
| 20260901044634 | 28 | 200 | 3.2 | 12.9 | 0.00 | 0.00 | 0.00 | 78 | 1016.7 |
| 20260901043729 | 28 | 274 | 4.8 | 14.5 | 0.00 | 0.00 | 0.00 | 78 | 1016.5 |
| 20260901043229 | 28 | 185 | 4.8 | 11.3 | 0.00 | 0.00 | 0.00 | 78 | 1016.6 |
| 20260901043053 | 28 | 192 | 3.2 | 14.5 | 0.00 | 0.00 | 0.00 | 77 | 1016.7 |
| 20260901042729 | 28 | 317 | 6.4 | 14.5 | 0.00 | 0.00 | 0.00 | 77 | 1016.6 |
| 20260901042229 | 29 | 191 | 6.4 | 14.5 | 0.00 | 0.00 | 0.00 | 77 | 1016.4 |
| 20260901041729 | 29 | 214 | 6.4 | 12.9 | 0.00 | 0.00 | 0.00 | 77 | 1016.4 |
| 20260901041602 | 28 | 349 | 3.2 | 11.3 | 0.00 | 0.00 | 0.00 | 76 | 1016.8 |
| 20260901041229 | 29 | 140 | 3.2 | 11.3 | 0.00 | 0.00 | 0.00 | 76 | 1016.5 |
| 20260901040729 | 29 | 335 | 4.8 | 12.9 | 0.00 | 0.00 | 0.00 | 76 | 1016.4 |
| 20260901040231 | 29 | 84 | 6.4 | 12.9 | 0.00 | 0.00 | 0.00 | 76 | 1016.4 |
| 20260901040059 | 28 | 304 | 4.8 | 12.9 | 0.00 | 0.00 | 0.00 | 75 | 1016.6 |
| 20260901035957 | 29 | 139 | 3.2 | 12.9 | 0.00 | 0.00 | 0.00 | 76 | 1016.4 |
| 20260901035231 | 29 | 302 | 8.0 | 12.9 | 0.00 | 0.00 | 0.00 | 76 | 1016.3 |
| 20260901034731 | 29 | 124 | 4.8 | 14.5 | 0.00 | 0.00 | 0.00 | 75 | 1016.2 |
| 20260901034601 | 29 | 357 | 3.2 | 14.5 | 0.00 | 0.00 | 0.00 | 75 | 1016.4 |
| 20260901034243 | 29 | 46 | 4.8 | 14.5 | 0.00 | 0.00 | 0.00 | 75 | 1016.3 |
| 20260901033728 | 29 | 324 | 8.0 | 14.5 | 0.00 | 0.00 | 0.00 | 75 | 1016.1 |
| 20260901033229 | 29 | 231 | 6.4 | 14.5 | 0.00 | 0.00 | 0.00 | 75 | 1016.1 |
| 20260901033100 | 29 | 231 | 4.8 | 14.5 | 0.00 | 0.00 | 0.00 | 74 | 1016.4 |
| 20260901032729 | 29 | 86 | 6.4 | 12.9 | 0.00 | 0.00 | 0.00 | 75 | 1016.1 |
| 20260901032229 | 29 | 297 | 6.4 | 16.1 | 0.00 | 0.00 | 0.00 | 75 | 1016.0 |
| 20260901031729 | 30 | 101 | 8.0 | 16.1 | 0.00 | 0.00 | 0.00 | 74 | 1016.0 |
| 20260901031600 | 29 | 3 | 6.4 | 17.7 | 0.00 | 0.00 | 0.00 | 74 | 1016.2 |
| 20260901031229 | 30 | 4 | 6.4 | 14.5 | 0.00 | 0.00 | 0.00 | 74 | 1015.9 |
| 20260901030728 | 30 | 211 | 8.0 | 14.5 | 0.00 | 0.00 | 0.00 | 73 | 1015.9 |
| 20260901030226 | 30 | 96 | 6.4 | 17.7 | 0.00 | 0.00 | 0.00 | 73 | 1015.9 |
| 20260901030105 | 30 | 307 | 4.8 | 17.7 | 0.00 | 0.00 | 0.00 | 72 | 1016.0 |
| 20260901025724 | 30 | 249 | 8.0 | 17.7 | 0.00 | 0.00 | 0.00 | 72 | 1015.7 |
| 20260901025219 | 30 | 150 | 8.0 | 12.9 | 0.00 | 0.00 | 0.00 | 72 | 1015.6 |
| 20260901024715 | 30 | 6 | 8.0 | 17.7 | 0.00 | 0.00 | 0.00 | 71 | 1015.2 |
| 20260901024605 | 30 | 312 | 6.4 | 17.7 | 0.00 | 0.00 | 0.00 | 71 | 1015.5 |
| 20260901024216 | 30 | 20 | 6.4 | 19.3 | 0.00 | 0.00 | 0.00 | 71 | 1015.1 |
| 20260901023705 | 30 | 157 | 6.4 | 19.3 | 0.00 | 0.00 | 0.00 | 70 | 1015.0 |
| 20260901023204 | 30 | 184 | 8.0 | 19.3 | 0.00 | 0.00 | 0.00 | 69 | 1015.0 |
| 20260901023107 | 30 | 231 | 6.4 | 16.1 | 0.00 | 0.00 | 0.00 | 68 | 1015.0 |
| 20260901022712 | 30 | 177 | 8.0 | 17.7 | 0.00 | 0.00 | 0.00 | 68 | 1014.8 |
| 20260901022217 | 30 | 68 | 9.7 | 19.3 | 0.00 | 0.00 | 0.00 | 67 | 1014.6 |